JST457 YBNA-YSSY

Flight info

Callsign JST457
Flight time 1h 5m
Altitude 36000
Route BNA W494 IDNER H98 SANAD H91 IGDAM/N0434F350 H652 BOREE
Aircraft A320/M-SDE3FGHIRWY/LB1

Departure

Time 2026-05-04 09:10
Airport Ballina Byron Gateway Airport (YBNA)

Arrival

Time 2026-05-04 10:16
Airport Sydney Kingsford Smith International Airport (YSSY)
Time Latitude Longitude Altitude Speed Heading
2026-05-04 09:01 -28.83694 153.55616 11 ft 0 kts 207°
2026-05-04 09:05 -28.83684 153.55622 15 ft 3 kts 207°
2026-05-04 09:05 -28.83667 153.55632 16 ft 3 kts 213°
2026-05-04 09:05 -28.83649 153.55648 16 ft 3 kts 229°
2026-05-04 09:06 -28.83637 153.55668 15 ft 3 kts 250°
2026-05-04 09:07 -28.83636 153.55672 16 ft 2 kts 253°
2026-05-04 09:08 -28.83666 153.55554 14 ft 18 kts 256°
2026-05-04 09:08 -28.83618 153.55518 14 ft 9 kts 340°
2026-05-04 09:08 -28.83535 153.55482 13 ft 15 kts 342°
2026-05-04 09:08 -28.83523 153.55374 11 ft 17 kts 253°
2026-05-04 09:09 -28.83560 153.55235 11 ft 19 kts 250°
2026-05-04 09:09 -28.83576 153.55199 11 ft 2 kts 333°
2026-05-04 09:09 -28.83566 153.55213 13 ft 3 kts 68°
2026-05-04 09:09 -28.83562 153.55227 11 ft 12 kts 73°
2026-05-04 09:10 -28.83462 153.55611 14 ft 86 kts 73°
2026-05-04 09:10 -28.83234 153.56477 15 ft 140 kts 73°
2026-05-04 09:10 -28.82959 153.57611 425 ft 147 kts 74°
2026-05-04 09:10 -28.82683 153.58746 1008 ft 151 kts 79°
2026-05-04 09:11 -28.82936 153.59894 1549 ft 159 kts 129°
2026-05-04 09:11 -28.83893 153.60611 1909 ft 179 kts 162°
2026-05-04 09:11 -28.85207 153.60666 2171 ft 203 kts 192°
2026-05-04 09:11 -28.86552 153.59920 2387 ft 232 kts 220°
2026-05-04 09:12 -28.87745 153.58526 2730 ft 258 kts 227°
2026-05-04 09:12 -28.89050 153.57004 3363 ft 273 kts 218°
2026-05-04 09:14 -29.00106 153.47742 9580 ft 292 kts 217°
2026-05-04 09:14 -29.01759 153.46352 10254 ft 302 kts 218°
2026-05-04 09:14 -29.03518 153.44870 10481 ft 326 kts 217°
2026-05-04 09:14 -29.05388 153.43296 10897 ft 339 kts 218°
2026-05-04 09:15 -29.07278 153.41705 11510 ft 345 kts 218°
2026-05-04 09:15 -29.09221 153.40072 12213 ft 348 kts 218°
2026-05-04 09:15 -29.11184 153.38422 12917 ft 352 kts 219°
2026-05-04 09:15 -29.13164 153.36754 13601 ft 355 kts 219°
2026-05-04 09:17 -29.29606 153.22875 18406 ft 379 kts 220°
2026-05-04 09:18 -29.31706 153.21101 18925 ft 381 kts 221°
2026-05-04 09:18 -29.33847 153.19286 19485 ft 383 kts 221°
2026-05-04 09:18 -29.35994 153.17462 20054 ft 385 kts 221°
2026-05-04 09:18 -29.38151 153.15630 20624 ft 387 kts 221°
2026-05-04 09:19 -29.40323 153.13787 21185 ft 390 kts 221°
2026-05-04 09:19 -29.42510 153.11934 21740 ft 392 kts 222°
2026-05-04 09:19 -29.44710 153.10070 22283 ft 394 kts 222°
2026-05-04 09:19 -29.46923 153.08195 22842 ft 397 kts 222°
2026-05-04 09:20 -29.49147 153.06304 23380 ft 399 kts 223°
2026-05-04 09:20 -29.51383 153.04400 23868 ft 401 kts 223°
2026-05-04 09:20 -29.53629 153.02487 24314 ft 403 kts 223°
2026-05-04 09:20 -29.55886 153.00566 24760 ft 405 kts 223°
2026-05-04 09:21 -29.58155 152.98639 25215 ft 406 kts 223°
2026-05-04 09:21 -29.60434 152.96699 25632 ft 408 kts 224°
2026-05-04 09:21 -29.62725 152.94747 26056 ft 409 kts 224°
2026-05-04 09:21 -29.65015 152.92792 26477 ft 411 kts 224°
2026-05-04 09:22 -29.67316 152.90828 26889 ft 412 kts 224°
2026-05-04 09:22 -29.69629 152.88857 27302 ft 414 kts 224°
2026-05-04 09:22 -29.71948 152.86874 27697 ft 416 kts 224°
2026-05-04 09:22 -29.74276 152.84885 28099 ft 418 kts 225°
2026-05-04 09:23 -29.76615 152.82886 28499 ft 419 kts 225°
2026-05-04 09:23 -29.78962 152.80879 28875 ft 422 kts 225°
2026-05-04 09:23 -29.81319 152.78857 29244 ft 423 kts 225°
2026-05-04 09:23 -29.83658 152.76844 29613 ft 426 kts 225°
2026-05-04 09:25 -30.00377 152.62496 32439 ft 421 kts 226°
2026-05-04 09:25 -30.02719 152.60482 32967 ft 418 kts 226°
2026-05-04 09:26 -30.05039 152.58487 33507 ft 414 kts 227°
2026-05-04 09:26 -30.07335 152.56507 34045 ft 410 kts 227°
2026-05-04 09:26 -30.09613 152.54541 34502 ft 407 kts 227°
2026-05-04 09:26 -30.11876 152.52587 34931 ft 405 kts 228°
2026-05-04 09:27 -30.14131 152.50640 35313 ft 403 kts 228°
2026-05-04 09:27 -30.16349 152.48721 35632 ft 403 kts 229°
2026-05-04 09:27 -30.18588 152.46781 35950 ft 402 kts 229°
2026-05-04 09:27 -30.20825 152.44837 36125 ft 402 kts 229°
2026-05-04 09:28 -30.25306 152.40951 36159 ft 402 kts 229°
2026-05-04 09:28 -30.29782 152.37070 36160 ft 402 kts 229°
2026-05-04 09:29 -30.34257 152.33182 36160 ft 401 kts 229°
2026-05-04 09:29 -30.37974 152.29951 36154 ft 403 kts 229°
2026-05-04 09:30 -30.42524 152.25976 36163 ft 416 kts 229°
2026-05-04 09:30 -30.47200 152.21896 36162 ft 424 kts 228°
2026-05-04 09:31 -30.51933 152.17783 36174 ft 426 kts 228°
2026-05-04 09:31 -30.56668 152.13660 36158 ft 425 kts 229°
2026-05-04 09:32 -30.61398 152.09532 36150 ft 425 kts 229°
2026-05-04 09:34 -30.80311 151.92947 36173 ft 426 kts 229°
2026-05-04 09:34 -30.85050 151.88781 36166 ft 427 kts 229°
2026-05-04 09:35 -30.89789 151.84598 36159 ft 427 kts 229°
2026-05-04 09:35 -30.94530 151.80419 36188 ft 427 kts 229°
2026-05-04 09:37 -31.13431 151.63685 36165 ft 427 kts 229°
2026-05-04 09:38 -31.18166 151.59480 36181 ft 428 kts 229°
2026-05-04 09:38 -31.22902 151.55271 36171 ft 428 kts 229°
2026-05-04 09:39 -31.27642 151.51049 36163 ft 428 kts 230°
2026-05-04 09:39 -31.32378 151.46831 36167 ft 428 kts 229°
2026-05-04 09:40 -31.37116 151.42607 36177 ft 429 kts 228°
2026-05-04 09:40 -31.39732 151.40772 36169 ft 449 kts 217°
2026-05-04 09:40 -31.42668 151.39402 36162 ft 456 kts 214°
2026-05-04 09:42 -31.66350 151.28862 36135 ft 455 kts 214°
2026-05-04 09:43 -31.72260 151.26204 36129 ft 455 kts 214°
2026-05-04 09:43 -31.78180 151.23534 36170 ft 456 kts 214°
2026-05-04 09:44 -31.84074 151.20889 36138 ft 452 kts 214°
2026-05-04 09:46 -32.07560 151.10325 36102 ft 450 kts 214°
2026-05-04 09:46 -32.10490 151.09012 35854 ft 451 kts 214°
2026-05-04 09:46 -32.13386 151.07713 34738 ft 451 kts 213°
2026-05-04 09:47 -32.16323 151.06391 33572 ft 453 kts 213°
2026-05-04 09:47 -32.19281 151.05052 32319 ft 458 kts 212°
2026-05-04 09:49 -32.41210 150.95161 28079 ft 495 kts 209°
2026-05-04 09:49 -32.44435 150.93705 27548 ft 496 kts 209°
2026-05-04 09:49 -32.47714 150.92348 27012 ft 505 kts 202°
2026-05-04 09:51 -32.69096 150.94668 23765 ft 507 kts 176°
2026-05-04 09:51 -32.72569 150.95287 23150 ft 502 kts 176°
2026-05-04 09:51 -32.76003 150.95888 22587 ft 497 kts 176°
2026-05-04 09:51 -32.79376 150.96481 22041 ft 493 kts 175°
2026-05-04 09:52 -32.82756 150.97080 21544 ft 489 kts 175°
2026-05-04 09:52 -32.86107 150.97674 21018 ft 486 kts 175°
2026-05-04 09:52 -32.89437 150.98267 20504 ft 481 kts 175°
2026-05-04 09:52 -32.92740 150.98857 19992 ft 478 kts 175°
2026-05-04 09:53 -32.96010 150.99446 19470 ft 474 kts 175°
2026-05-04 09:53 -32.99267 151.00032 18947 ft 470 kts 174°
2026-05-04 09:53 -33.02487 151.00607 18460 ft 467 kts 175°
2026-05-04 09:53 -33.05687 151.01174 17904 ft 463 kts 174°
2026-05-04 09:54 -33.08860 151.01737 17414 ft 459 kts 174°
2026-05-04 09:54 -33.12010 151.02296 16916 ft 456 kts 174°
2026-05-04 09:54 -33.15133 151.02852 16427 ft 452 kts 174°
2026-05-04 09:54 -33.18237 151.03407 15930 ft 449 kts 174°
2026-05-04 09:55 -33.21318 151.03961 15442 ft 446 kts 174°
2026-05-04 09:55 -33.24373 151.04515 14950 ft 442 kts 174°
2026-05-04 09:55 -33.27408 151.05083 14465 ft 439 kts 173°
2026-05-04 09:55 -33.30427 151.05662 13987 ft 436 kts 173°
2026-05-04 09:56 -33.33374 151.06234 13480 ft 433 kts 173°
2026-05-04 09:56 -33.36375 151.06817 13000 ft 430 kts 173°
2026-05-04 09:56 -33.39315 151.07386 12522 ft 427 kts 173°
2026-05-04 09:56 -33.42199 151.07941 12062 ft 424 kts 173°
2026-05-04 09:57 -33.45136 151.08506 11583 ft 420 kts 173°
2026-05-04 09:57 -33.48016 151.09057 11123 ft 418 kts 173°
2026-05-04 09:57 -33.50843 151.09597 10661 ft 415 kts 173°
2026-05-04 09:57 -33.53686 151.10142 10195 ft 413 kts 173°
2026-05-04 09:58 -33.56510 151.10685 10008 ft 411 kts 173°
2026-05-04 09:58 -33.59342 151.11229 9407 ft 410 kts 173°
2026-05-04 09:58 -33.62128 151.11769 8858 ft 403 kts 173°
2026-05-04 10:00 -33.78331 151.23462 7465 ft 401 kts 133°
2026-05-04 10:00 -33.80256 151.25882 7271 ft 400 kts 133°
2026-05-04 10:02 -33.95980 151.32448 6001 ft 281 kts 170°
2026-05-04 10:04 -34.09410 151.35933 5286 ft 279 kts 169°
2026-05-04 10:04 -34.11286 151.36437 5041 ft 276 kts 169°
2026-05-04 10:04 -34.13175 151.36939 5007 ft 280 kts 169°
2026-05-04 10:04 -34.15077 151.37437 5009 ft 280 kts 169°
2026-05-04 10:05 -34.16980 151.37930 4982 ft 279 kts 170°
2026-05-04 10:05 -34.18866 151.38412 4523 ft 276 kts 170°
2026-05-04 10:05 -34.20733 151.38885 4035 ft 273 kts 170°
2026-05-04 10:05 -34.22584 151.39335 3524 ft 269 kts 174°
2026-05-04 10:06 -34.24392 151.39140 3080 ft 256 kts 207°
2026-05-04 10:06 -34.25777 151.37916 3001 ft 245 kts 239°
2026-05-04 10:06 -34.26475 151.36099 3008 ft 237 kts 260°
2026-05-04 10:08 -34.22518 151.27193 3010 ft 220 kts 323°
2026-05-04 10:08 -34.21307 151.26057 3010 ft 220 kts 325°
2026-05-04 10:08 -34.19930 151.25319 3012 ft 218 kts 346°
2026-05-04 10:08 -34.18482 151.24947 3004 ft 205 kts 347°
2026-05-04 10:09 -34.17151 151.24608 3003 ft 191 kts 346°
2026-05-04 10:09 -34.15897 151.24283 3006 ft 181 kts 346°
2026-05-04 10:09 -34.14686 151.23967 3006 ft 177 kts 346°
2026-05-04 10:09 -34.13492 151.23655 3007 ft 176 kts 346°
2026-05-04 10:10 -34.12290 151.23342 2931 ft 177 kts 347°
2026-05-04 10:10 -34.11067 151.23023 2754 ft 187 kts 347°
2026-05-04 10:10 -34.09796 151.22691 2524 ft 186 kts 347°
2026-05-04 10:10 -34.08535 151.22363 2307 ft 184 kts 348°
2026-05-04 10:11 -34.07269 151.22033 2042 ft 187 kts 349°
2026-05-04 10:11 -34.06008 151.21705 1791 ft 186 kts 348°
2026-05-04 10:11 -34.04797 151.21388 1545 ft 167 kts 348°
2026-05-04 10:11 -34.03749 151.21115 1358 ft 144 kts 349°
2026-05-04 10:12 -34.02815 151.20873 1168 ft 136 kts 349°
2026-05-04 10:12 -34.01882 151.20631 992 ft 136 kts 348°
2026-05-04 10:12 -34.00968 151.20394 811 ft 134 kts 348°
2026-05-04 10:12 -34.00048 151.20155 642 ft 134 kts 350°
2026-05-04 10:13 -33.99148 151.19912 467 ft 131 kts 351°
2026-05-04 10:13 -33.98249 151.19694 277 ft 133 kts 355°
2026-05-04 10:13 -33.97350 151.19442 121 ft 132 kts 350°
2026-05-04 10:13 -33.96474 151.19219 27 ft 117 kts 350°
2026-05-04 10:14 -33.95841 151.19056 28 ft 72 kts 348°
2026-05-04 10:14 -33.95407 151.18925 26 ft 57 kts 335°
2026-05-04 10:16 -33.95161 151.18177 30 ft 1 kts 257°
2026-05-04 10:16 -33.95181 151.18068 30 ft 24 kts 257°
2026-05-04 10:16 -33.95165 151.17964 30 ft 19 kts 323°
2026-05-04 10:16 -33.95041 151.17928 30 ft 19 kts 348°
2026-05-04 10:17 -33.94851 151.17879 30 ft 23 kts 348°
2026-05-04 10:17 -33.94757 151.17855 30 ft 15 kts 348°
2026-05-04 10:19 -33.94065 151.17654 28 ft 26 kts 347°
2026-05-04 10:19 -33.93937 151.17620 29 ft 6 kts 347°
2026-05-04 10:19 -33.93917 151.17614 29 ft 11 kts 347°
2026-05-04 10:19 -33.93782 151.17580 29 ft 21 kts 347°
2026-05-04 10:20 -33.93716 151.17561 29 ft 0 kts 348°
2026-05-04 10:22 -33.93646 151.17603 30 ft 15 kts 63°
2026-05-04 10:22 -33.93652 151.17740 30 ft 18 kts 99°
2026-05-04 10:22 -33.93605 151.17822 30 ft 14 kts
2026-05-04 10:23 -33.93501 151.17842 29 ft 8 kts
2026-05-04 10:23 -33.93489 151.17802 30 ft 7 kts 279°